708  
NZUS99 KSGF 240207  
HRRSGF  
 
HOURLY WEATHER  
NATIONAL WEATHER SERVICE SPRINGFIELD MO  
800 PM CST FRI FEB 23 2018  
   
.....SGF CWA...
 
 
 
CITY SKY/WX TMP DP RH WIND PRES REMARKS  
SPRINGFIELD RAIN 46 45 96 N5 30.14R FOG  
JOPLIN RAIN 41 41 100 E10 30.12F FOG  
WEST PLAINS RAIN 47 46 97 E6 30.15F FOG  
ROLLA LGT RAIN 40 40 100 NE8 30.23R FOG WCI 34  
OSAGE BEACH LGT RAIN 38 38 100 NE9 30.21F FOG WCI 31  
BRANSON CLOUDY 46 46 100 SE9 30.15F  
   
.....SURROUNDING SGF CWA...
 
 
 
CITY SKY/WX TMP DP RH WIND PRES REMARKS  
CHANUTE LGT RAIN 37 36 96 NE9 30.17S FOG WCI 30  
PARSONS LGT RAIN 38 37 97 NE9 30.13F WCI 31  
COFFEYVILLE LGT RAIN 39 38 96 NE10 30.13F FOG WCI 32  
EMPORIA CLOUDY 31 29 92 NE12 30.16F WCI 22  
GROVE OK RAIN 45 45 100 E7 30.09F  
SILOAM SPRINGS RAIN 52 51 97 E10 30.11S FOG  
HARRISON AR FOG 46 46 100 E8 30.13F VSB 1/2  
NEAR YELLVILLE CLOUDY 47 47 100 CALM 30.17F  
   
.....KANSAS AND MISSOURI...
 
 
 
CITY SKY/WX TMP DP RH WIND PRES REMARKS  
KANSAS CTY INT CLOUDY 33 30 88 E6 30.22F WCI 28  
DOWNTOWN KC CLOUDY 36 29 75 NE7 30.22F WCI 30  
COLUMBIA CLOUDY 36 35 96 NE9 30.23F FOG WCI 29  
SEDALIA CLOUDY 37 36 96 NE8 30.23F WCI 31  
ST JOSEPH CLOUDY 34 31 88 NE7 30.24F WCI 28  
ST LOUIS CLOUDY 42 40 92 N8 30.24R  
SPIRIT OF STL CLOUDY 42 40 92 N7 30.27R  
KIRKSVILLE CLOUDY 33 32 96 CALM 30.27R  
WICHITA CLOUDY 33 32 96 NE12 30.12F FOG WCI 24  
TOPEKA CLOUDY 34 31 88 E6 30.23S WCI 29  
OLATHE CLOUDY 33 30 88 NE8 30.20F WCI 26  
   
.....TENNESSEE...
 
 
 
CITY SKY/WX TMP DP RH WIND PRES REMARKS  
MEMPHIS DRIZZLE 59 57 93 N7 30.20R  
NASHVILLE CLOUDY 70 55 59 S5 30.18F  
   
.....ARKANSAS....
 
 
 
CITY SKY/WX TMP DP RH WIND PRES REMARKS  
FAYETTEVILLE LGT RAIN 52 52 100 N5 30.10F FOG  
FT SMITH LGT RAIN 52 51 97 E9 30.07F  
LITTLE ROCK MOCLDY 52 52 100 E8 30.15F  
   
.....OKLAHOMA....
 
 
 
CITY SKY/WX TMP DP RH WIND PRES REMARKS  
TULSA RAIN 42 41 96 N8 30.09F FOG  
PONCA CITY CLOUDY 37 35 92 NE9 30.10F FOG WCI 30  
MCALESTER TSTM 46 46 100 NW6 30.05S FOG  
OKLAHOMA CITY DRIZZLE 38 37 97 NE10 30.05F FOG WCI 31  
   
.....IOWA.........
 
 
 
CITY SKY/WX TMP DP RH WIND PRES REMARKS  
DES MOINES CLOUDY 26 22 84 N6 30.30R WCI 19  
QUAD CITIES FAIR 33 28 81 NW3 30.28R  
   
.....ILLINOIS.....
 
 
 
CITY SKY/WX TMP DP RH WIND PRES REMARKS  
QUINCY CLOUDY 37 33 85 CALM 30.27F  
CHICAGO CLOUDY 37 32 82 W5 30.24S WCI 33  
 
CLICK HERE TO GO TO PREVIOUS BULLETINS.

The Nexlab MO Page
The Nexlab KS Page Main Text Page